Regional Weather Roundup
Issued by NWS Sioux Falls, SD

Home | Current Version | Previous Version | Text Only | Print | Product List | Glossary Off
Versions: 1 2 3 4 5 6 7 8 9 10 11 12 13 14 15 16 17 18 19 20 21 22 23 24 25 26 27 28 29 30 31 32 33 34 35 36 37 38 39 40 41 42 43 44 45 46 47 48 49 50

000
ASUS43 KFSD 012010
RWRFSD

WEATHER ROUNDUP FOR SE SOUTH DAKOTA/SW MINNESOTA/NW IOWA
NATIONAL WEATHER SERVICE SIOUX FALLS SD
300 PM CDT SUN MAY 01 2016

NOTE: "FAIR" INDICATES FEW OR NO CLOUDS BELOW 12,000 FEET WITH NO
SIGNIFICANT WEATHER AND OR OBSTRUCTIONS TO VISIBILITY.


SDZ038>040-050-052>070-012100-
SOUTHEAST SOUTH DAKOTA

CITY           SKY/WX    TMP DP  RH WIND       PRES   REMARKS
BROOKINGS      SUNNY     56  33  42 NE12G17   30.17S
CHAMBERLAIN    SUNNY     58  35  42 NE14      30.23S
HURON          SUNNY     59  32  36 NE15G23   30.21S
MADISON        FAIR      54  34  47 NE8G18    30.18S
MITCHELL       MOSUNNY   57  38  48 N10       30.21S
SIOUX FALLS    PTSUNNY   54  38  54 NE9       30.17R
WINNER         FAIR      58  34  40 N20G26    30.23F
YANKTON        CLOUDY    54  43  66 N12       30.17S
$$

MNZ071-072-080-081-089-090-097-098-012100-
SOUTHWEST MINNESOTA

CITY           SKY/WX    TMP DP  RH WIND       PRES   REMARKS
FAIRMONT       CLOUDY    55  37  50 NE13      30.10F
JACKSON        CLOUDY    54  37  54 N14G21    30.12S
LUVERNE        CLOUDY    52  34  50 NE7G20    30.16S
MARSHALL       SUNNY     57  33  40 NE13      30.16F
MONTEVIDEO     SUNNY     61  32  33 E14G21    30.18S
REDWOOD FALLS  MOSUNNY   60  33  36 N12G18    30.14F
TRACY          PTSUNNY   57  37  47 NE17      30.15S
WINDOM         MOSUNNY   57  36  44 N12G21    30.13S
WORTHINGTON    CLOUDY    53  37  54 NE14      30.14S
$$

IAZ001>003-012>014-020>022-031-032-NEZ013-014-SDZ071-012100-
NORTHWEST IOWA

CITY           SKY/WX    TMP DP  RH WIND       PRES   REMARKS
CHEROKEE       LGT RAIN  49  45  85 N10       30.13S
DENISON        LGT RAIN  46  43  87 N15       30.10S
ESTHERVILLE    PTSUNNY   55  42  61 NE16      30.10F
LE MARS        CLOUDY    54  41  62 N16       30.15S
ORANGE CITY    CLOUDY    52  43  71 N10G16    30.15R
SHELDON        CLOUDY    54  43  66 N15G22    30.13S
SIOUX CITY     CLOUDY    53  42  66 N15       30.15S
SPENCER        CLOUDY    53  39  59 N17       30.12S
STORM LAKE     LGT RAIN  46  43  87 N13       30.12S
$$

ABBREVIATIONS USED IN REMARKS
   TC - TEMPERATURE IN CELSIUS
  WCI - WIND CHILL INDEX
   HX - HEAT INDEX
  VSB - VISIBILITY





USA.gov is the U.S. government's official web portal to all federal, state and local government web resources and services.